Time,TemperatureF,DewpointF,PressureIn,WindDirection,WindDirectionDegrees,WindSpeedMPH,WindSpeedGustMPH,Humidity,HourlyPrecipIn,Conditions,Clouds,dailyrainin,SoftwareType,DateUTC
2014-02-13 00:01:00,28.2,23.7,30.26,WSW,248,0.0,0.0,83,0.00,CLR,BKN,0.00,WeatherDisplay:10.37,2014-02-13 05:01:00,
2014-02-13 00:06:00,27.9,23.4,30.25,SW,225,1.1,1.1,83,0.00,CLR,BKN,0.00,WeatherDisplay:10.37,2014-02-13 05:06:00,
2014-02-13 00:11:00,27.9,23.4,30.25,ENE,68,1.1,1.1,83,0.00,CLR,BKN,0.00,WeatherDisplay:10.37,2014-02-13 05:11:00,
2014-02-13 00:16:00,27.9,23.4,30.25,East,90,0.0,0.2,83,0.00,CLR,BKN,0.00,WeatherDisplay:10.37,2014-02-13 05:16:00,
2014-02-13 00:21:00,27.9,23.4,30.25,WSW,248,1.1,0.0,83,0.00,CLR,BKN,0.00,WeatherDisplay:10.37,2014-02-13 05:21:00,
2014-02-13 00:26:00,27.9,23.4,30.24,NE,45,0.0,0.0,83,0.00,CLR,BKN,0.00,WeatherDisplay:10.37,2014-02-13 05:26:00,
2014-02-13 00:31:00,27.7,23.2,30.24,West,270,0.0,0.0,83,0.00,CLR,BKN,0.00,WeatherDisplay:10.37,2014-02-13 05:31:00,
2014-02-13 00:36:00,27.9,23.4,30.24,East,90,0.0,0.0,83,0.00,CLR,BKN,0.00,WeatherDisplay:10.37,2014-02-13 05:36:00,
2014-02-13 00:41:00,27.5,23.0,30.24,NW,315,0.0,0.0,83,0.00,CLR,BKN,0.00,WeatherDisplay:10.37,2014-02-13 05:41:00,
2014-02-13 00:46:00,27.5,23.0,30.22,NNE,22,1.4,1.4,83,0.00,CLR,BKN,0.00,WeatherDisplay:10.37,2014-02-13 05:46:00,
2014-02-13 00:51:00,27.5,23.0,30.22,ENE,68,1.3,1.3,83,0.00,CLR,BKN,0.00,WeatherDisplay:10.37,2014-02-13 05:51:00,
2014-02-13 00:56:00,27.3,22.8,30.22,NW,315,1.1,1.1,83,0.00,CLR,BKN,0.00,WeatherDisplay:10.37,2014-02-13 05:56:00,
2014-02-13 01:01:00,27.3,22.8,30.22,ENE,68,0.0,0.1,83,0.00,CLR,BKN,0.00,WeatherDisplay:10.37,2014-02-13 06:01:00,
2014-02-13 01:06:00,27.3,22.8,30.21,NE,45,0.0,0.1,83,0.00,CLR,BKN,0.00,WeatherDisplay:10.37,2014-02-13 06:06:00,
2014-02-13 01:11:00,27.5,23.0,30.21,NE,45,0.0,0.0,83,0.00,CLR,BKN,0.00,WeatherDisplay:10.37,2014-02-13 06:11:00,
2014-02-13 01:16:00,27.3,22.8,30.21,NW,315,0.0,0.0,83,0.00,CLR,BKN,0.00,WeatherDisplay:10.37,2014-02-13 06:16:00,
2014-02-13 01:21:00,27.3,22.8,30.21,West,270,0.0,0.0,83,0.00,CLR,BKN,0.00,WeatherDisplay:10.37,2014-02-13 06:21:00,
2014-02-13 01:26:00,27.5,23.0,30.19,NNE,22,0.0,0.0,83,0.00,CLR,BKN,0.00,WeatherDisplay:10.37,2014-02-13 06:26:00,
2014-02-13 01:31:00,27.5,23.0,30.19,WSW,248,1.1,0.0,83,0.00,CLR,BKN,0.00,WeatherDisplay:10.37,2014-02-13 06:31:00,
2014-02-13 01:36:00,27.5,23.0,30.19,West,270,0.0,0.1,83,0.00,CLR,BKN,0.00,WeatherDisplay:10.37,2014-02-13 06:36:00,
2014-02-13 01:41:00,27.5,23.0,30.19,ENE,68,0.0,0.1,83,0.00,CLR,BKN,0.00,WeatherDisplay:10.37,2014-02-13 06:41:00,
2014-02-13 01:46:00,27.1,22.7,30.18,NE,45,0.0,0.0,83,0.00,CLR,BKN,0.00,WeatherDisplay:10.37,2014-02-13 06:46:00,
2014-02-13 01:51:00,27.1,22.7,30.18,SSE,158,0.0,0.0,83,0.00,CLR,BKN,0.00,WeatherDisplay:10.37,2014-02-13 06:51:00,
2014-02-13 01:56:00,27.1,22.7,30.18,NNE,22,0.0,0.0,83,0.00,CLR,BKN,0.00,WeatherDisplay:10.37,2014-02-13 06:56:00,
2014-02-13 02:01:00,27.1,22.7,30.18,NW,315,0.0,0.0,83,0.00,CLR,BKN,0.00,WeatherDisplay:10.37,2014-02-13 07:01:00,
2014-02-13 02:06:00,27.0,22.5,30.17,ESE,112,0.0,0.0,83,0.00,CLR,BKN,0.00,WeatherDisplay:10.37,2014-02-13 07:06:00,
2014-02-13 02:11:00,27.1,22.7,30.17,WSW,248,0.0,0.0,83,0.00,CLR,BKN,0.00,WeatherDisplay:10.37,2014-02-13 07:11:00,
2014-02-13 02:16:00,26.8,22.3,30.17,ESE,112,0.0,0.0,83,0.00,CLR,BKN,0.00,WeatherDisplay:10.37,2014-02-13 07:16:00,
2014-02-13 02:21:00,26.8,22.3,30.17,WSW,248,1.1,1.1,83,0.00,CLR,BKN,0.00,WeatherDisplay:10.37,2014-02-13 07:21:00,
2014-02-13 02:26:00,26.8,22.3,30.16,WSW,248,0.0,0.1,83,0.00,CLR,BKN,0.00,WeatherDisplay:10.37,2014-02-13 07:26:00,
2014-02-13 02:31:00,26.8,22.3,30.16,ESE,112,0.0,0.1,83,0.00,CLR,BKN,0.00,WeatherDisplay:10.37,2014-02-13 07:31:00,
2014-02-13 02:36:00,26.8,22.3,30.16,SW,225,0.0,0.0,83,0.00,CLR,BKN,0.00,WeatherDisplay:10.37,2014-02-13 07:36:00,
2014-02-13 02:41:00,26.4,22.0,30.16,WSW,248,0.0,0.0,83,0.00,CLR,BKN,0.00,WeatherDisplay:10.37,2014-02-13 07:41:00,
2014-02-13 02:46:00,26.4,22.0,30.16,WNW,292,0.0,0.0,83,0.00,CLR,BKN,0.00,WeatherDisplay:10.37,2014-02-13 07:46:00,
2014-02-13 02:51:00,26.4,22.0,30.16,WNW,292,0.0,0.0,83,0.00,CLR,BKN,0.00,WeatherDisplay:10.37,2014-02-13 07:51:00,
2014-02-13 02:56:00,26.1,21.6,30.16,WSW,248,1.1,1.1,83,0.00,CLR,BKN,0.00,WeatherDisplay:10.37,2014-02-13 07:56:00,
2014-02-13 03:01:00,25.7,21.3,30.16,SSW,202,2.3,2.3,83,0.00,CLR,BKN,0.00,WeatherDisplay:10.37,2014-02-13 08:01:00,
2014-02-13 03:06:00,25.5,21.1,30.15,WSW,248,0.0,0.3,83,0.00,CLR,BKN,0.00,WeatherDisplay:10.37,2014-02-13 08:06:00,
2014-02-13 03:11:00,25.3,21.2,30.15,West,270,0.0,0.2,84,0.00,CLR,BKN,0.00,WeatherDisplay:10.37,2014-02-13 08:11:00,
2014-02-13 03:16:00,25.3,21.2,30.15,WSW,248,0.0,0.3,84,0.00,CLR,BKN,0.00,WeatherDisplay:10.37,2014-02-13 08:16:00,
2014-02-13 03:21:00,25.3,21.2,30.15,SW,225,2.3,2.3,84,0.00,CLR,BKN,0.00,WeatherDisplay:10.37,2014-02-13 08:21:00,
2014-02-13 03:26:00,25.0,20.8,30.14,ESE,112,0.0,0.2,84,0.00,CLR,BKN,0.00,WeatherDisplay:10.37,2014-02-13 08:26:00,
2014-02-13 03:31:00,24.6,20.2,30.14,WSW,248,1.1,1.1,83,0.00,CLR,BKN,0.00,WeatherDisplay:10.37,2014-02-13 08:31:00,
2014-02-13 03:36:00,24.4,20.0,30.14,NW,315,0.0,0.2,83,0.00,CLR,BKN,0.00,WeatherDisplay:10.37,2014-02-13 08:36:00,
2014-02-13 03:41:00,24.3,19.8,30.14,South,180,2.3,2.3,83,0.00,CLR,BKN,0.00,WeatherDisplay:10.37,2014-02-13 08:41:00,
2014-02-13 03:46:00,24.3,19.8,30.14,SSE,158,2.3,2.3,83,0.00,CLR,BKN,0.00,WeatherDisplay:10.37,2014-02-13 08:46:00,
2014-02-13 03:51:00,24.1,19.7,30.14,WNW,292,2.3,2.3,83,0.00,CLR,BKN,0.00,WeatherDisplay:10.37,2014-02-13 08:51:00,
2014-02-13 03:56:00,23.9,19.5,30.14,WSW,248,2.3,2.3,83,0.00,CLR,BKN,0.00,WeatherDisplay:10.37,2014-02-13 08:56:00,
2014-02-13 04:01:00,23.9,19.5,30.14,WSW,248,0.0,0.1,83,0.00,CLR,BKN,0.00,WeatherDisplay:10.37,2014-02-13 09:01:00,
2014-02-13 04:06:00,23.9,19.5,30.12,ESE,112,0.0,0.0,83,0.00,CLR,BKN,0.00,WeatherDisplay:10.37,2014-02-13 09:06:00,
2014-02-13 04:11:00,23.9,19.5,30.12,South,180,0.0,0.0,83,0.00,CLR,BKN,0.00,WeatherDisplay:10.37,2014-02-13 09:11:00,
2014-02-13 04:16:00,23.9,19.5,30.12,NE,45,0.0,0.0,83,0.00,CLR,BKN,0.00,WeatherDisplay:10.37,2014-02-13 09:16:00,
2014-02-13 04:21:00,23.9,19.5,30.12,ENE,68,0.0,0.0,83,0.00,CLR,BKN,0.00,WeatherDisplay:10.37,2014-02-13 09:21:00,
2014-02-13 04:26:00,23.9,19.5,30.11,NE,45,2.3,2.3,83,0.00,CLR,BKN,0.00,WeatherDisplay:10.37,2014-02-13 09:26:00,
2014-02-13 04:31:00,23.4,19.0,30.11,NE,45,1.3,1.3,83,0.00,CLR,BKN,0.00,WeatherDisplay:10.37,2014-02-13 09:31:00,
2014-02-13 04:36:00,23.2,18.8,30.11,NW,315,0.0,0.1,83,0.00,CLR,BKN,0.00,WeatherDisplay:10.37,2014-02-13 09:36:00,
2014-02-13 04:41:00,23.2,18.8,30.11,SE,135,0.0,0.1,83,0.00,CLR,BKN,0.00,WeatherDisplay:10.37,2014-02-13 09:41:00,
2014-02-13 04:46:00,22.8,18.4,30.10,WSW,248,0.0,0.0,83,0.00,CLR,BKN,0.00,WeatherDisplay:10.37,2014-02-13 09:46:00,
2014-02-13 04:51:00,22.8,18.4,30.10,ESE,112,0.0,0.0,83,0.00,CLR,BKN,0.00,WeatherDisplay:10.37,2014-02-13 09:51:00,
2014-02-13 04:56:00,22.8,18.4,30.10,WSW,248,0.0,0.0,83,0.00,CLR,BKN,0.00,WeatherDisplay:10.37,2014-02-13 09:56:00,
2014-02-13 05:01:00,23.0,18.6,30.10,South,180,0.0,0.0,83,0.00,CLR,BKN,0.00,WeatherDisplay:10.37,2014-02-13 10:01:00,
2014-02-13 05:06:00,23.2,18.8,30.11,ESE,112,0.0,0.0,83,0.00,CLR,BKN,0.00,WeatherDisplay:10.37,2014-02-13 10:06:00,
2014-02-13 05:11:00,23.2,18.8,30.11,West,270,0.0,0.0,83,0.00,CLR,BKN,0.00,WeatherDisplay:10.37,2014-02-13 10:11:00,
2014-02-13 05:16:00,23.5,19.1,30.11,NW,315,0.0,0.0,83,0.00,CLR,BKN,0.00,WeatherDisplay:10.37,2014-02-13 10:16:00,
2014-02-13 05:21:00,23.4,19.0,30.11,South,180,0.0,0.0,83,0.00,CLR,BKN,0.00,WeatherDisplay:10.37,2014-02-13 10:21:00,
2014-02-13 05:26:00,23.4,19.0,30.10,ENE,68,0.0,0.0,83,0.00,CLR,BKN,0.00,WeatherDisplay:10.37,2014-02-13 10:26:00,
2014-02-13 05:31:00,23.4,19.0,30.10,ESE,112,0.0,0.0,83,0.00,CLR,BKN,0.00,WeatherDisplay:10.37,2014-02-13 10:31:00,
2014-02-13 05:36:00,23.4,19.0,30.10,ESE,112,0.0,0.0,83,0.00,CLR,BKN,0.00,WeatherDisplay:10.37,2014-02-13 10:36:00,
2014-02-13 05:41:00,23.5,19.1,30.10,ENE,68,0.0,0.0,83,0.00,CLR,BKN,0.00,WeatherDisplay:10.37,2014-02-13 10:41:00,
2014-02-13 05:46:00,23.5,19.1,30.10,ENE,68,0.0,0.0,83,0.00,CLR,BKN,0.00,WeatherDisplay:10.37,2014-02-13 10:46:00,
2014-02-13 05:51:00,23.5,19.1,30.10,ENE,68,0.0,0.0,83,0.00,CLR,BKN,0.00,WeatherDisplay:10.37,2014-02-13 10:51:00,
2014-02-13 05:56:00,23.5,19.1,30.10,WSW,248,0.0,0.0,83,0.00,CLR,BKN,0.00,WeatherDisplay:10.37,2014-02-13 10:56:00,
2014-02-13 06:01:00,23.4,19.0,30.10,WSW,248,0.0,0.2,83,0.00,CLR,BKN,0.00,WeatherDisplay:10.37,2014-02-13 11:01:00,
2014-02-13 06:06:00,23.4,19.0,30.11,WSW,248,1.6,1.6,83,0.00,CLR,BKN,0.00,WeatherDisplay:10.37,2014-02-13 11:06:00,
2014-02-13 06:11:00,23.2,18.8,30.11,NE,45,0.0,0.1,83,0.00,CLR,BKN,0.00,WeatherDisplay:10.37,2014-02-13 11:11:00,
2014-02-13 06:16:00,23.5,19.1,30.11,WNW,292,1.6,1.6,83,0.00,CLR,BKN,0.00,WeatherDisplay:10.37,2014-02-13 11:16:00,
2014-02-13 06:21:00,23.2,18.8,30.11,West,270,0.0,0.2,83,0.00,CLR,BKN,0.00,WeatherDisplay:10.37,2014-02-13 11:21:00,
2014-02-13 06:26:00,23.2,18.8,30.12,ESE,112,0.0,0.2,83,0.00,CLR,BKN,0.00,WeatherDisplay:10.37,2014-02-13 11:26:00,
2014-02-13 06:31:00,23.2,18.8,30.12,SSW,202,0.0,0.0,83,0.00,CLR,BKN,0.00,WeatherDisplay:10.37,2014-02-13 11:31:00,
2014-02-13 06:36:00,23.2,18.8,30.12,WSW,248,0.0,0.0,83,0.00,CLR,BKN,0.00,WeatherDisplay:10.37,2014-02-13 11:36:00,
2014-02-13 06:41:00,23.2,18.8,30.12,SE,135,0.0,0.0,83,0.00,CLR,BKN,0.00,WeatherDisplay:10.37,2014-02-13 11:41:00,
2014-02-13 06:46:00,23.2,18.8,30.12,East,90,0.0,0.0,83,0.00,CLR,BKN,0.00,WeatherDisplay:10.37,2014-02-13 11:46:00,
2014-02-13 06:51:00,23.2,18.8,30.12,South,180,0.0,0.0,83,0.00,CLR,BKN,0.00,WeatherDisplay:10.37,2014-02-13 11:51:00,
2014-02-13 06:56:00,23.2,18.8,30.12,SSW,202,0.0,0.0,83,0.00,CLR,BKN,0.00,WeatherDisplay:10.37,2014-02-13 11:56:00,
2014-02-13 07:01:00,23.2,18.8,30.12,ENE,68,0.0,0.0,83,0.00,CLR,BKN,0.00,WeatherDisplay:10.37,2014-02-13 12:01:00,
2014-02-13 07:06:00,23.2,18.8,30.12,SE,135,0.0,0.0,83,0.00,CLR,BKN,0.00,WeatherDisplay:10.37,2014-02-13 12:06:00,
2014-02-13 07:11:00,23.2,18.8,30.12,West,270,1.1,1.1,83,0.00,CLR,BKN,0.00,WeatherDisplay:10.37,2014-02-13 12:11:00,
2014-02-13 07:16:00,23.2,18.8,30.12,SW,225,1.1,1.1,83,0.00,CLR,BKN,0.00,WeatherDisplay:10.37,2014-02-13 12:16:00,
2014-02-13 07:21:00,23.2,18.8,30.12,WSW,248,2.3,2.3,83,0.00,CLR,BKN,0.00,WeatherDisplay:10.37,2014-02-13 12:21:00,
2014-02-13 07:26:00,23.2,18.8,30.12,SW,225,1.1,1.1,83,0.00,CLR,BKN,0.00,WeatherDisplay:10.37,2014-02-13 12:26:00,
2014-02-13 07:31:00,23.2,18.8,30.12,SSW,202,2.3,2.3,83,0.00,CLR,BKN,0.00,WeatherDisplay:10.37,2014-02-13 12:31:00,
2014-02-13 07:36:00,23.2,18.8,30.12,WSW,248,0.0,0.5,83,0.00,CLR,BKN,0.00,WeatherDisplay:10.37,2014-02-13 12:36:00,
2014-02-13 07:41:00,23.5,19.1,30.12,SW,225,1.1,1.1,83,0.00,CLR,BKN,0.00,WeatherDisplay:10.37,2014-02-13 12:41:00,
2014-02-13 07:46:00,23.4,19.0,30.12,WSW,248,0.0,0.1,83,0.00,CLR,BKN,0.00,WeatherDisplay:10.37,2014-02-13 12:46:00,
2014-02-13 07:51:00,23.5,19.1,30.12,SW,225,0.0,0.0,83,0.00,CLR,BKN,0.00,WeatherDisplay:10.37,2014-02-13 12:51:00,
2014-02-13 07:56:00,23.5,19.1,30.12,SW,225,0.0,0.0,83,0.00,CLR,BKN,0.00,WeatherDisplay:10.37,2014-02-13 12:56:00,
2014-02-13 08:01:00,23.9,19.5,30.12,SSW,202,0.0,0.0,83,0.00,CLR,BKN,0.00,WeatherDisplay:10.37,2014-02-13 13:01:00,
2014-02-13 08:06:00,23.9,19.5,30.12,SSW,202,0.0,0.0,83,0.00,CLR,BKN,0.00,WeatherDisplay:10.37,2014-02-13 13:06:00,
2014-02-13 08:11:00,23.9,19.5,30.12,SSW,202,0.0,0.0,83,0.00,CLR,BKN,0.00,WeatherDisplay:10.37,2014-02-13 13:11:00,
2014-02-13 08:16:00,23.9,19.5,30.12,SSW,202,0.0,0.0,83,0.00,CLR,BKN,0.00,WeatherDisplay:10.37,2014-02-13 13:16:00,
2014-02-13 08:21:00,24.1,19.7,30.12,SSW,202,0.0,0.0,83,0.00,CLR,BKN,0.00,WeatherDisplay:10.37,2014-02-13 13:21:00,
2014-02-13 08:26:00,24.1,19.7,30.13,SSW,202,0.0,0.0,83,0.00,CLR,BKN,0.00,WeatherDisplay:10.37,2014-02-13 13:26:00,
2014-02-13 08:31:00,24.6,20.2,30.13,SSW,202,0.0,0.0,83,0.00,CLR,BKN,0.00,WeatherDisplay:10.37,2014-02-13 13:31:00,
2014-02-13 08:36:00,24.6,20.2,30.13,SSW,202,0.0,0.0,83,0.00,CLR,BKN,0.00,WeatherDisplay:10.37,2014-02-13 13:36:00,
2014-02-13 08:41:00,24.6,20.2,30.13,East,90,0.0,0.0,83,0.00,CLR,BKN,0.00,WeatherDisplay:10.37,2014-02-13 13:41:00,
2014-02-13 08:46:00,24.6,20.2,30.13,SE,135,0.0,0.1,83,0.00,CLR,BKN,0.00,WeatherDisplay:10.37,2014-02-13 13:46:00,
2014-02-13 08:51:00,24.6,20.2,30.13,ENE,68,1.3,1.3,83,0.00,CLR,BKN,0.00,WeatherDisplay:10.37,2014-02-13 13:51:00,
2014-02-13 08:56:00,24.6,20.2,30.13,South,180,0.0,0.0,83,0.00,CLR,BKN,0.00,WeatherDisplay:10.37,2014-02-13 13:56:00,
2014-02-13 09:01:00,24.8,20.7,30.13,West,270,0.0,0.0,84,0.00,CLR,BKN,0.00,WeatherDisplay:10.37,2014-02-13 14:01:00,
2014-02-13 09:06:00,25.0,20.8,30.13,NNE,22,1.1,1.1,84,0.00,CLR,BKN,0.00,WeatherDisplay:10.37,2014-02-13 14:06:00,
2014-02-13 09:11:00,25.3,21.2,30.13,NE,45,0.0,0.1,84,0.00,CLR,BKN,0.00,WeatherDisplay:10.37,2014-02-13 14:11:00,
2014-02-13 09:16:00,25.0,20.8,30.13,NNE,22,2.3,2.3,84,0.00,CLR,BKN,0.00,WeatherDisplay:10.37,2014-02-13 14:16:00,
2014-02-13 09:21:00,25.0,20.8,30.13,WSW,248,2.0,2.0,84,0.00,CLR,BKN,0.00,WeatherDisplay:10.37,2014-02-13 14:21:00,
2014-02-13 09:26:00,25.0,20.8,30.14,WSW,248,2.3,2.3,84,0.00,CLR,BKN,0.00,WeatherDisplay:10.37,2014-02-13 14:26:00,
2014-02-13 09:31:00,24.8,20.7,30.14,WSW,248,2.3,2.3,84,0.00,CLR,BKN,0.00,WeatherDisplay:10.37,2014-02-13 14:31:00,
2014-02-13 09:36:00,25.0,20.8,30.14,SW,225,1.1,1.1,84,0.00,CLR,BKN,0.00,WeatherDisplay:10.37,2014-02-13 14:36:00,
2014-02-13 09:41:00,25.3,21.2,30.14,WSW,248,1.7,1.7,84,0.00,CLR,BKN,0.00,WeatherDisplay:10.37,2014-02-13 14:41:00,
2014-02-13 09:46:00,25.7,21.5,30.14,WSW,248,2.3,2.3,84,0.00,CLR,BKN,0.00,WeatherDisplay:10.37,2014-02-13 14:46:00,
2014-02-13 09:51:00,26.1,21.9,30.14,SE,135,0.0,0.3,84,0.00,CLR,BKN,0.00,WeatherDisplay:10.37,2014-02-13 14:51:00,
2014-02-13 09:56:00,26.4,22.2,30.14,SW,225,0.0,0.1,84,0.00,CLR,BKN,0.00,WeatherDisplay:10.37,2014-02-13 14:56:00,
2014-02-13 10:01:00,26.8,22.6,30.14,ESE,112,1.1,1.1,84,0.00,CLR,BKN,0.00,WeatherDisplay:10.37,2014-02-13 15:01:00,
2014-02-13 10:06:00,26.8,22.6,30.14,ESE,112,2.3,2.3,84,0.00,CLR,BKN,0.00,WeatherDisplay:10.37,2014-02-13 15:06:00,
2014-02-13 10:11:00,27.5,23.3,30.14,WSW,248,3.0,3.0,84,0.00,CLR,BKN,0.00,WeatherDisplay:10.37,2014-02-13 15:11:00,
2014-02-13 10:16:00,27.9,23.4,30.14,ENE,68,1.1,1.1,83,0.00,CLR,BKN,0.00,WeatherDisplay:10.37,2014-02-13 15:16:00,
2014-02-13 10:21:00,28.9,24.4,30.14,NE,45,0.0,0.5,83,0.00,CLR,BKN,0.00,WeatherDisplay:10.37,2014-02-13 15:21:00,
2014-02-13 10:26:00,29.3,24.8,30.14,SW,225,1.5,1.5,83,0.00,CLR,BKN,0.00,WeatherDisplay:10.37,2014-02-13 15:26:00,
2014-02-13 10:31:00,29.7,24.8,30.14,WSW,248,0.0,0.1,82,0.00,CLR,BKN,0.00,WeatherDisplay:10.37,2014-02-13 15:31:00,
2014-02-13 10:36:00,29.7,24.8,30.14,ESE,112,0.0,0.1,82,0.00,CLR,BKN,0.00,WeatherDisplay:10.37,2014-02-13 15:36:00,
2014-02-13 10:41:00,29.7,24.8,30.14,SE,135,0.0,0.0,82,0.00,CLR,BKN,0.00,WeatherDisplay:10.37,2014-02-13 15:41:00,
2014-02-13 10:46:00,29.8,25.0,30.15,SE,135,0.0,0.0,82,0.00,CLR,BKN,0.00,WeatherDisplay:10.37,2014-02-13 15:46:00,
2014-02-13 10:51:00,30.0,24.9,30.15,ESE,112,2.3,2.3,81,0.00,CLR,BKN,0.00,WeatherDisplay:10.37,2014-02-13 15:51:00,
2014-02-13 10:56:00,30.7,25.6,30.15,ESE,112,0.0,0.1,81,0.00,CLR,BKN,0.00,WeatherDisplay:10.37,2014-02-13 15:56:00,
2014-02-13 11:01:00,30.6,25.1,30.15,South,180,0.0,0.1,80,0.00,CLR,BKN,0.00,WeatherDisplay:10.37,2014-02-13 16:01:00,
2014-02-13 11:06:00,30.6,25.1,30.15,ENE,68,0.0,0.0,80,0.00,CLR,BKN,0.00,WeatherDisplay:10.37,2014-02-13 16:06:00,
2014-02-13 11:11:00,31.1,25.7,30.15,NE,45,0.0,0.1,80,0.00,CLR,BKN,0.00,WeatherDisplay:10.37,2014-02-13 16:11:00,
2014-02-13 11:16:00,31.8,26.4,30.15,WSW,248,2.3,2.3,80,0.00,CLR,BKN,0.00,WeatherDisplay:10.37,2014-02-13 16:16:00,
2014-02-13 11:21:00,32.7,26.6,30.15,ENE,68,0.0,0.2,78,0.00,CLR,BKN,0.00,WeatherDisplay:10.37,2014-02-13 16:21:00,
2014-02-13 11:26:00,32.5,26.4,30.15,NNE,22,1.1,1.1,78,0.00,CLR,BKN,0.00,WeatherDisplay:10.37,2014-02-13 16:26:00,
2014-02-13 11:31:00,32.5,26.4,30.15,WSW,248,1.1,1.1,78,0.00,CLR,BKN,0.00,WeatherDisplay:10.37,2014-02-13 16:31:00,
2014-02-13 11:36:00,32.7,26.6,30.15,WNW,292,2.3,2.3,78,0.00,CLR,BKN,0.00,WeatherDisplay:10.37,2014-02-13 16:36:00,
2014-02-13 11:41:00,33.3,27.1,30.15,West,270,2.3,2.3,78,0.00,CLR,BKN,0.00,WeatherDisplay:10.37,2014-02-13 16:41:00,
2014-02-13 11:46:00,33.3,26.8,30.14,WSW,248,2.3,2.3,77,0.00,CLR,BKN,0.00,WeatherDisplay:10.37,2014-02-13 16:46:00,
2014-02-13 11:51:00,33.3,26.8,30.14,WSW,248,2.3,2.3,77,0.00,CLR,BKN,0.00,WeatherDisplay:10.37,2014-02-13 16:51:00,
2014-02-13 11:56:00,34.3,27.9,30.14,WSW,248,2.3,2.3,77,0.00,CLR,BKN,0.00,WeatherDisplay:10.37,2014-02-13 16:56:00,
2014-02-13 12:01:00,34.2,27.7,30.14,WSW,248,2.3,2.3,77,0.00,CLR,BKN,0.00,WeatherDisplay:10.37,2014-02-13 17:01:00,
2014-02-13 12:06:00,33.4,27.0,30.14,WSW,248,2.3,2.3,77,0.00,CLR,BKN,0.00,WeatherDisplay:10.37,2014-02-13 17:06:00,
2014-02-13 12:11:00,32.9,26.8,30.14,WSW,248,1.1,1.1,78,0.00,CLR,BKN,0.00,WeatherDisplay:10.37,2014-02-13 17:11:00,
2014-02-13 12:16:00,32.9,26.8,30.14,NE,45,2.3,2.3,78,0.00,CLR,BKN,0.00,WeatherDisplay:10.37,2014-02-13 17:16:00,
2014-02-13 12:21:00,31.8,25.7,30.14,SE,135,0.0,0.7,78,0.00,CLR,BKN,0.00,WeatherDisplay:10.37,2014-02-13 17:21:00,
2014-02-13 12:26:00,31.8,26.0,30.13,ESE,112,1.1,1.1,79,0.00,CLR,BKN,0.00,WeatherDisplay:10.37,2014-02-13 17:26:00,
2014-02-13 12:31:00,32.0,26.2,30.13,NNE,22,0.0,0.3,79,0.00,CLR,BKN,0.00,WeatherDisplay:10.37,2014-02-13 17:31:00,
2014-02-13 12:36:00,32.0,26.2,30.13,ENE,68,0.0,0.3,79,0.00,CLR,BKN,0.00,WeatherDisplay:10.37,2014-02-13 17:36:00,
2014-02-13 12:41:00,32.9,26.8,30.13,South,180,2.3,2.3,78,0.00,CLR,BKN,0.00,WeatherDisplay:10.37,2014-02-13 17:41:00,
2014-02-13 12:46:00,33.3,27.1,30.12,ENE,68,2.3,2.3,78,0.00,CLR,BKN,0.00,WeatherDisplay:10.37,2014-02-13 17:46:00,
2014-02-13 12:51:00,33.3,27.1,30.12,ESE,112,0.0,0.2,78,0.00,CLR,BKN,0.00,WeatherDisplay:10.37,2014-02-13 17:51:00,
2014-02-13 12:56:00,33.3,27.1,30.12,NE,45,0.0,0.2,78,0.00,CLR,BKN,0.00,WeatherDisplay:10.37,2014-02-13 17:56:00,
2014-02-13 13:01:00,33.6,27.5,30.12,South,180,2.3,2.3,78,0.00,CLR,BKN,0.00,WeatherDisplay:10.37,2014-02-13 18:01:00,
2014-02-13 13:06:00,34.2,28.0,30.11,SSW,202,4.6,4.6,78,0.00,CLR,BKN,0.00,WeatherDisplay:10.37,2014-02-13 18:06:00,
2014-02-13 13:11:00,34.9,28.4,30.11,SSE,158,2.3,2.3,77,0.00,CLR,BKN,0.00,WeatherDisplay:10.37,2014-02-13 18:11:00,
2014-02-13 13:16:00,35.4,28.9,30.11,NW,315,1.1,1.1,77,0.00,CLR,BKN,0.00,WeatherDisplay:10.37,2014-02-13 18:16:00,
2014-02-13 13:21:00,35.4,28.6,30.11,NW,315,0.0,0.8,76,0.00,CLR,BKN,0.00,WeatherDisplay:10.37,2014-02-13 18:21:00,
2014-02-13 13:26:00,35.1,28.6,30.11,NW,315,2.3,2.3,77,0.00,CLR,BKN,0.00,WeatherDisplay:10.37,2014-02-13 18:26:00,
2014-02-13 13:31:00,34.3,27.9,30.11,NNE,22,0.0,1.3,77,0.00,CLR,BKN,0.00,WeatherDisplay:10.37,2014-02-13 18:31:00,
2014-02-13 13:36:00,34.0,27.8,30.11,NW,315,4.6,4.6,78,0.00,CLR,BKN,0.00,WeatherDisplay:10.37,2014-02-13 18:36:00,
2014-02-13 13:41:00,33.4,27.6,30.11,South,180,4.6,4.6,79,0.00,CLR,BKN,0.00,WeatherDisplay:10.37,2014-02-13 18:41:00,
2014-02-13 13:46:00,33.4,27.6,30.11,NE,45,2.3,2.3,79,0.00,CLR,BKN,0.00,WeatherDisplay:10.37,2014-02-13 18:46:00,
2014-02-13 13:51:00,33.4,27.6,30.11,South,180,5.8,5.8,79,0.00,CLR,BKN,0.00,WeatherDisplay:10.37,2014-02-13 18:51:00,
2014-02-13 13:56:00,33.6,27.8,30.11,WNW,292,3.5,3.5,79,0.00,CLR,BKN,0.00,WeatherDisplay:10.37,2014-02-13 18:56:00,
2014-02-13 14:01:00,33.1,27.6,30.11,WNW,292,1.4,2.6,80,0.00,CLR,BKN,0.00,WeatherDisplay:10.37,2014-02-13 19:01:00,
2014-02-13 14:06:00,33.3,27.8,30.11,WNW,292,1.1,2.6,80,0.00,CLR,BKN,0.00,WeatherDisplay:10.37,2014-02-13 19:06:00,
2014-02-13 14:11:00,33.3,27.8,30.11,NW,315,3.0,3.0,80,0.00,CLR,BKN,0.00,WeatherDisplay:10.37,2014-02-13 19:11:00,
2014-02-13 14:16:00,32.7,27.2,30.11,South,180,2.3,2.3,80,0.00,CLR,BKN,0.00,WeatherDisplay:10.37,2014-02-13 19:16:00,
2014-02-13 14:21:00,32.4,27.2,30.11,SW,225,2.5,2.5,81,0.00,CLR,BKN,0.00,WeatherDisplay:10.37,2014-02-13 19:21:00,
2014-02-13 14:26:00,32.7,27.5,30.12,NW,315,3.5,3.5,81,0.00,CLR,BKN,0.00,WeatherDisplay:10.37,2014-02-13 19:26:00,
2014-02-13 14:31:00,32.0,26.8,30.12,East,90,1.1,1.4,81,0.00,CLR,BKN,0.00,WeatherDisplay:10.37,2014-02-13 19:31:00,
2014-02-13 14:36:00,31.8,27.0,30.12,NNW,338,1.1,1.1,82,0.00,CLR,BKN,0.00,WeatherDisplay:10.37,2014-02-13 19:36:00,
2014-02-13 14:41:00,32.2,27.3,30.12,South,180,3.5,3.5,82,0.00,CLR,BKN,0.00,WeatherDisplay:10.37,2014-02-13 19:41:00,
2014-02-13 14:46:00,32.7,27.8,30.12,SW,225,2.3,2.3,82,0.00,CLR,BKN,0.00,WeatherDisplay:10.37,2014-02-13 19:46:00,
2014-02-13 14:51:00,33.6,28.4,30.12,East,90,0.0,0.5,81,0.00,CLR,BKN,0.00,WeatherDisplay:10.37,2014-02-13 19:51:00,
2014-02-13 14:56:00,33.4,28.2,30.12,ESE,112,1.1,1.1,81,0.00,CLR,BKN,0.00,WeatherDisplay:10.37,2014-02-13 19:56:00,
2014-02-13 15:01:00,32.9,28.0,30.12,ESE,112,0.0,0.3,82,0.00,CLR,BKN,0.00,WeatherDisplay:10.37,2014-02-13 20:01:00,
2014-02-13 15:06:00,32.5,27.7,30.11,South,180,0.0,0.2,82,0.00,CLR,BKN,0.00,WeatherDisplay:10.37,2014-02-13 20:06:00,
2014-02-13 15:11:00,31.8,27.0,30.11,East,90,0.0,0.1,82,0.00,CLR,BKN,0.00,WeatherDisplay:10.37,2014-02-13 20:11:00,
2014-02-13 15:16:00,31.8,27.2,30.11,South,180,1.1,1.1,83,0.00,CLR,BKN,0.00,WeatherDisplay:10.37,2014-02-13 20:16:00,
2014-02-13 15:21:00,31.8,27.2,30.11,NE,45,0.0,0.2,83,0.00,CLR,BKN,0.00,WeatherDisplay:10.37,2014-02-13 20:21:00,
2014-02-13 15:26:00,31.8,27.2,30.12,NE,45,0.0,0.2,83,0.00,CLR,BKN,0.00,WeatherDisplay:10.37,2014-02-13 20:26:00,
2014-02-13 15:31:00,31.8,27.2,30.12,SE,135,0.0,0.3,83,0.00,CLR,BKN,0.00,WeatherDisplay:10.37,2014-02-13 20:31:00,
2014-02-13 15:36:00,31.5,26.9,30.12,ENE,68,1.1,1.1,83,0.00,CLR,BKN,0.00,WeatherDisplay:10.37,2014-02-13 20:36:00,
2014-02-13 15:41:00,31.5,26.9,30.12,SW,225,1.1,1.1,83,0.00,CLR,BKN,0.00,WeatherDisplay:10.37,2014-02-13 20:41:00,
2014-02-13 15:46:00,31.5,26.9,30.13,ESE,112,0.0,0.6,83,0.00,CLR,BKN,0.00,WeatherDisplay:10.37,2014-02-13 20:46:00,
2014-02-13 15:51:00,31.5,26.9,30.13,ESE,112,0.0,0.3,83,0.00,CLR,BKN,0.00,WeatherDisplay:10.37,2014-02-13 20:51:00,
2014-02-13 15:56:00,31.8,27.2,30.13,ESE,112,2.3,2.3,83,0.00,CLR,BKN,0.00,WeatherDisplay:10.37,2014-02-13 20:56:00,
2014-02-13 16:01:00,31.8,27.2,30.13,ESE,112,0.0,0.6,83,0.00,CLR,BKN,0.00,WeatherDisplay:10.37,2014-02-13 21:01:00,
2014-02-13 16:06:00,31.8,27.2,30.12,ESE,112,0.0,0.6,83,0.00,CLR,BKN,0.00,WeatherDisplay:10.37,2014-02-13 21:06:00,
2014-02-13 16:11:00,31.8,27.2,30.12,ESE,112,0.0,0.2,83,0.00,CLR,BKN,0.00,WeatherDisplay:10.37,2014-02-13 21:11:00,
2014-02-13 16:16:00,31.8,27.2,30.12,NNW,338,2.3,2.3,83,0.00,CLR,BKN,0.00,WeatherDisplay:10.37,2014-02-13 21:16:00,
2014-02-13 16:21:00,32.2,27.6,30.12,NW,315,2.3,2.3,83,0.00,CLR,BKN,0.00,WeatherDisplay:10.37,2014-02-13 21:21:00,
2014-02-13 16:26:00,32.0,27.4,30.13,East,90,1.1,1.1,83,0.00,CLR,BKN,0.00,WeatherDisplay:10.37,2014-02-13 21:26:00,
2014-02-13 16:31:00,32.2,27.6,30.13,West,270,2.3,2.3,83,0.00,CLR,BKN,0.00,WeatherDisplay:10.37,2014-02-13 21:31:00,
2014-02-13 16:36:00,32.0,27.4,30.13,East,90,2.8,2.8,83,0.00,CLR,BKN,0.00,WeatherDisplay:10.37,2014-02-13 21:36:00,
2014-02-13 16:41:00,32.0,27.4,30.13,SE,135,2.3,2.3,83,0.00,CLR,BKN,0.00,WeatherDisplay:10.37,2014-02-13 21:41:00,
2014-02-13 16:46:00,32.0,27.4,30.12,ENE,68,1.1,1.1,83,0.00,CLR,BKN,0.00,WeatherDisplay:10.37,2014-02-13 21:46:00,
2014-02-13 16:51:00,32.2,27.6,30.12,WSW,248,1.1,1.1,83,0.00,CLR,BKN,0.00,WeatherDisplay:10.37,2014-02-13 21:51:00,
2014-02-13 16:56:00,32.2,27.6,30.12,ESE,112,1.1,1.1,83,0.00,CLR,BKN,0.00,WeatherDisplay:10.37,2014-02-13 21:56:00,
2014-02-13 17:01:00,32.2,27.6,30.12,ESE,112,1.1,1.1,83,0.00,CLR,BKN,0.00,WeatherDisplay:10.37,2014-02-13 22:01:00,
2014-02-13 17:06:00,32.2,27.6,30.14,ESE,112,1.6,1.6,83,0.00,CLR,BKN,0.00,WeatherDisplay:10.37,2014-02-13 22:06:00,
2014-02-13 17:11:00,32.5,27.7,30.14,SSE,158,1.1,1.1,82,0.00,CLR,BKN,0.00,WeatherDisplay:10.37,2014-02-13 22:11:00,
2014-02-13 17:16:00,32.4,27.5,30.14,ESE,112,0.0,0.3,82,0.00,CLR,BKN,0.00,WeatherDisplay:10.37,2014-02-13 22:16:00,
2014-02-13 17:21:00,32.5,27.7,30.14,ESE,112,2.3,2.3,82,0.00,CLR,BKN,0.00,WeatherDisplay:10.37,2014-02-13 22:21:00,
2014-02-13 17:26:00,32.4,27.5,30.14,ESE,112,2.3,2.3,82,0.00,CLR,BKN,0.00,WeatherDisplay:10.37,2014-02-13 22:26:00,
2014-02-13 17:31:00,32.5,27.7,30.14,NNW,338,2.3,2.3,82,0.00,CLR,BKN,0.00,WeatherDisplay:10.37,2014-02-13 22:31:00,
2014-02-13 17:36:00,32.5,27.7,30.14,NNW,338,2.3,2.3,82,0.00,CLR,BKN,0.00,WeatherDisplay:10.37,2014-02-13 22:36:00,
2014-02-13 17:41:00,32.5,27.7,30.14,NNW,338,2.3,2.3,82,0.00,CLR,BKN,0.00,WeatherDisplay:10.37,2014-02-13 22:41:00,
2014-02-13 17:46:00,32.5,27.7,30.15,NNW,338,0.0,1.6,82,0.00,CLR,BKN,0.00,WeatherDisplay:10.37,2014-02-13 22:46:00,
2014-02-13 17:51:00,32.5,27.7,30.15,South,180,0.0,1.1,82,0.00,CLR,BKN,0.00,WeatherDisplay:10.37,2014-02-13 22:51:00,
2014-02-13 17:56:00,32.4,27.5,30.15,NNW,338,2.3,2.3,82,0.00,CLR,BKN,0.00,WeatherDisplay:10.37,2014-02-13 22:56:00,
2014-02-13 18:01:00,32.5,27.4,30.15,NNW,338,2.3,2.3,81,0.00,CLR,BKN,0.00,WeatherDisplay:10.37,2014-02-13 23:01:00,
2014-02-13 18:06:00,32.5,27.4,30.15,ESE,112,2.3,2.3,81,0.00,CLR,BKN,0.00,WeatherDisplay:10.37,2014-02-13 23:06:00,
2014-02-13 18:11:00,32.5,27.4,30.15,ESE,112,1.1,1.1,81,0.00,CLR,BKN,0.00,WeatherDisplay:10.37,2014-02-13 23:11:00,
2014-02-13 18:16:00,32.7,27.5,30.15,ESE,112,1.1,1.1,81,0.00,CLR,BKN,0.00,WeatherDisplay:10.37,2014-02-13 23:16:00,
2014-02-13 18:21:00,32.5,27.4,30.15,ESE,112,1.1,0.0,81,0.00,CLR,BKN,0.00,WeatherDisplay:10.37,2014-02-13 23:21:00,
2014-02-13 18:26:00,32.5,27.4,30.16,ESE,112,0.0,0.0,81,0.00,CLR,BKN,0.00,WeatherDisplay:10.37,2014-02-13 23:26:00,
2014-02-13 18:31:00,32.5,27.4,30.16,ESE,112,0.0,0.0,81,0.00,CLR,BKN,0.00,WeatherDisplay:10.37,2014-02-13 23:31:00,
2014-02-13 18:36:00,32.5,27.4,30.16,ESE,112,0.0,0.0,81,0.00,CLR,BKN,0.00,WeatherDisplay:10.37,2014-02-13 23:36:00,
2014-02-13 18:41:00,32.7,27.5,30.16,ESE,112,0.0,0.0,81,0.00,CLR,BKN,0.00,WeatherDisplay:10.37,2014-02-13 23:41:00,
2014-02-13 18:46:00,32.7,27.5,30.18,ESE,112,0.0,0.0,81,0.00,CLR,BKN,0.00,WeatherDisplay:10.37,2014-02-13 23:46:00,
2014-02-13 18:51:00,32.7,27.8,30.18,ESE,112,0.0,0.0,82,0.00,CLR,BKN,0.00,WeatherDisplay:10.37,2014-02-13 23:51:00,
2014-02-13 18:56:00,32.7,27.8,30.18,ESE,112,0.0,0.0,82,0.00,CLR,BKN,0.00,WeatherDisplay:10.37,2014-02-13 23:56:00,
2014-02-13 19:01:00,32.7,27.8,30.18,ESE,112,0.0,0.0,82,0.00,CLR,BKN,0.00,WeatherDisplay:10.37,2014-02-14 00:01:00,
2014-02-13 19:06:00,32.7,27.8,30.18,ESE,112,0.0,0.0,82,0.00,CLR,BKN,0.00,WeatherDisplay:10.37,2014-02-14 00:06:00,
2014-02-13 19:11:00,32.7,27.8,30.18,ESE,112,0.0,0.0,82,0.00,CLR,BKN,0.00,WeatherDisplay:10.37,2014-02-14 00:11:00,
2014-02-13 19:16:00,32.9,28.0,30.18,ESE,112,0.0,0.0,82,0.00,CLR,BKN,0.00,WeatherDisplay:10.37,2014-02-14 00:16:00,
2014-02-13 19:21:00,32.7,27.8,30.18,ESE,112,0.0,0.0,82,0.00,CLR,BKN,0.00,WeatherDisplay:10.37,2014-02-14 00:21:00,
2014-02-13 19:26:00,32.7,27.8,30.18,ESE,112,0.0,0.0,82,0.00,CLR,BKN,0.00,WeatherDisplay:10.37,2014-02-14 00:26:00,
2014-02-13 19:31:00,32.5,27.7,30.18,ESE,112,0.0,0.0,82,0.00,CLR,BKN,0.00,WeatherDisplay:10.37,2014-02-14 00:31:00,
2014-02-13 19:36:00,32.5,27.7,30.18,ESE,112,0.0,0.0,82,0.00,CLR,BKN,0.00,WeatherDisplay:10.37,2014-02-14 00:36:00,
2014-02-13 19:41:00,32.4,27.5,30.18,ESE,112,0.0,0.0,82,0.00,CLR,BKN,0.00,WeatherDisplay:10.37,2014-02-14 00:41:00,
2014-02-13 19:46:00,32.5,27.7,30.19,ESE,112,0.0,0.0,82,0.00,CLR,BKN,0.00,WeatherDisplay:10.37,2014-02-14 00:46:00,
2014-02-13 19:51:00,32.5,27.7,30.19,ESE,112,0.0,0.0,82,0.00,CLR,BKN,0.00,WeatherDisplay:10.37,2014-02-14 00:51:00,
2014-02-13 19:56:00,32.2,27.3,30.19,ESE,112,0.0,0.0,82,0.00,CLR,BKN,0.00,WeatherDisplay:10.37,2014-02-14 00:56:00,
2014-02-13 20:01:00,32.0,27.1,30.19,ESE,112,0.0,0.0,82,0.00,CLR,BKN,0.00,WeatherDisplay:10.37,2014-02-14 01:01:00,
2014-02-13 20:06:00,31.8,27.0,30.18,ESE,112,0.0,0.0,82,0.00,CLR,BKN,0.00,WeatherDisplay:10.37,2014-02-14 01:06:00,
2014-02-13 20:11:00,32.2,27.3,30.18,ESE,112,0.0,0.0,82,0.00,CLR,BKN,0.00,WeatherDisplay:10.37,2014-02-14 01:11:00,
2014-02-13 20:16:00,32.2,27.3,30.18,ESE,112,0.0,0.0,82,0.00,CLR,BKN,0.00,WeatherDisplay:10.37,2014-02-14 01:16:00,
2014-02-13 20:21:00,32.0,27.1,30.18,ESE,112,0.0,0.0,82,0.00,CLR,BKN,0.00,WeatherDisplay:10.37,2014-02-14 01:21:00,
2014-02-13 20:26:00,32.2,27.3,30.19,ESE,112,0.0,0.0,82,0.00,CLR,BKN,0.00,WeatherDisplay:10.37,2014-02-14 01:26:00,
2014-02-13 20:31:00,32.0,27.1,30.19,ESE,112,0.0,0.0,82,0.00,CLR,BKN,0.00,WeatherDisplay:10.37,2014-02-14 01:31:00,
2014-02-13 20:36:00,32.0,27.1,30.19,ESE,112,0.0,0.0,82,0.00,CLR,BKN,0.00,WeatherDisplay:10.37,2014-02-14 01:36:00,
2014-02-13 20:41:00,32.2,27.3,30.19,ESE,112,0.0,0.0,82,0.00,CLR,BKN,0.00,WeatherDisplay:10.37,2014-02-14 01:41:00,
2014-02-13 20:46:00,31.8,27.0,30.19,ESE,112,0.0,0.0,82,0.00,CLR,BKN,0.00,WeatherDisplay:10.37,2014-02-14 01:46:00,
2014-02-13 20:51:00,31.8,27.0,30.19,ESE,112,0.0,0.0,82,0.00,CLR,BKN,0.00,WeatherDisplay:10.37,2014-02-14 01:51:00,
2014-02-13 20:56:00,31.8,27.0,30.19,ESE,112,0.0,0.0,82,0.00,CLR,BKN,0.00,WeatherDisplay:10.37,2014-02-14 01:56:00,
2014-02-13 21:01:00,31.8,27.2,30.19,ESE,112,0.0,0.0,83,0.00,CLR,BKN,0.00,WeatherDisplay:10.37,2014-02-14 02:01:00,
2014-02-13 21:06:00,31.5,26.9,30.19,ESE,112,0.0,0.0,83,0.00,CLR,BKN,0.00,WeatherDisplay:10.37,2014-02-14 02:06:00,
2014-02-13 21:11:00,31.5,26.9,30.19,ESE,112,0.0,0.0,83,0.00,CLR,BKN,0.00,WeatherDisplay:10.37,2014-02-14 02:11:00,
2014-02-13 21:16:00,31.5,26.9,30.19,ESE,112,0.0,0.0,83,0.00,CLR,BKN,0.00,WeatherDisplay:10.37,2014-02-14 02:16:00,
2014-02-13 21:21:00,31.1,26.5,30.19,ESE,112,0.0,0.0,83,0.00,CLR,BKN,0.00,WeatherDisplay:10.37,2014-02-14 02:21:00,
2014-02-13 21:26:00,31.1,26.5,30.19,ESE,112,0.0,0.0,83,0.00,CLR,BKN,0.00,WeatherDisplay:10.37,2014-02-14 02:26:00,
2014-02-13 21:31:00,30.6,26.0,30.19,ESE,112,0.0,0.0,83,0.00,CLR,BKN,0.00,WeatherDisplay:10.37,2014-02-14 02:31:00,
2014-02-13 21:36:00,30.4,25.8,30.19,ESE,112,0.0,0.0,83,0.00,CLR,BKN,0.00,WeatherDisplay:10.37,2014-02-14 02:36:00,
2014-02-13 21:41:00,30.0,25.5,30.19,ESE,112,0.0,0.0,83,0.00,CLR,BKN,0.00,WeatherDisplay:10.37,2014-02-14 02:41:00,
2014-02-13 21:46:00,29.3,24.8,30.19,ESE,112,0.0,0.0,83,0.00,CLR,BKN,0.00,WeatherDisplay:10.37,2014-02-14 02:46:00,
2014-02-13 21:51:00,29.3,24.8,30.19,ESE,112,0.0,0.0,83,0.00,CLR,BKN,0.00,WeatherDisplay:10.37,2014-02-14 02:51:00,
2014-02-13 21:56:00,29.3,24.8,30.19,ESE,112,0.0,0.0,83,0.00,CLR,BKN,0.00,WeatherDisplay:10.37,2014-02-14 02:56:00,
2014-02-13 22:01:00,28.9,24.4,30.19,ESE,112,0.0,0.0,83,0.00,CLR,BKN,0.00,WeatherDisplay:10.37,2014-02-14 03:01:00,
2014-02-13 22:06:00,28.6,24.1,30.20,ESE,112,0.0,0.0,83,0.00,CLR,BKN,0.00,WeatherDisplay:10.37,2014-02-14 03:06:00,
2014-02-13 22:11:00,28.2,23.7,30.20,ESE,112,0.0,0.0,83,0.00,CLR,BKN,0.00,WeatherDisplay:10.37,2014-02-14 03:11:00,
2014-02-13 22:16:00,27.9,23.4,30.20,ESE,112,0.0,0.0,83,0.00,CLR,BKN,0.00,WeatherDisplay:10.37,2014-02-14 03:16:00,
2014-02-13 22:21:00,28.2,23.4,30.20,ESE,112,0.0,0.0,82,0.00,CLR,BKN,0.00,WeatherDisplay:10.37,2014-02-14 03:21:00,
2014-02-13 22:26:00,28.2,23.4,30.20,ESE,112,0.0,0.0,82,0.00,CLR,BKN,0.00,WeatherDisplay:10.37,2014-02-14 03:26:00,
2014-02-13 22:31:00,28.2,23.4,30.20,ESE,112,0.0,0.0,82,0.00,CLR,BKN,0.00,WeatherDisplay:10.37,2014-02-14 03:31:00,
2014-02-13 22:36:00,28.2,23.4,30.20,ESE,112,0.0,0.0,82,0.00,CLR,BKN,0.00,WeatherDisplay:10.37,2014-02-14 03:36:00,
2014-02-13 22:41:00,27.5,22.7,30.20,ESE,112,0.0,0.0,82,0.00,CLR,BKN,0.00,WeatherDisplay:10.37,2014-02-14 03:41:00,
2014-02-13 22:46:00,27.0,22.2,30.20,ESE,112,0.0,0.0,82,0.00,CLR,BKN,0.00,WeatherDisplay:10.37,2014-02-14 03:46:00,
2014-02-13 22:51:00,26.8,22.0,30.20,ESE,112,0.0,0.0,82,0.00,CLR,BKN,0.00,WeatherDisplay:10.37,2014-02-14 03:51:00,
2014-02-13 22:56:00,26.8,22.0,30.20,ESE,112,0.0,0.0,82,0.00,CLR,BKN,0.00,WeatherDisplay:10.37,2014-02-14 03:56:00,
2014-02-13 23:01:00,26.2,21.5,30.20,ESE,112,0.0,0.0,82,0.00,CLR,BKN,0.00,WeatherDisplay:10.37,2014-02-14 04:01:00,
2014-02-13 23:06:00,26.1,21.3,30.20,ESE,112,0.0,0.0,82,0.00,CLR,BKN,0.00,WeatherDisplay:10.37,2014-02-14 04:06:00,
2014-02-13 23:11:00,25.7,21.0,30.20,ESE,112,0.0,0.0,82,0.00,CLR,BKN,0.00,WeatherDisplay:10.37,2014-02-14 04:11:00,
2014-02-13 23:16:00,25.7,21.0,30.20,ESE,112,0.0,0.0,82,0.00,CLR,BKN,0.00,WeatherDisplay:10.37,2014-02-14 04:16:00,
2014-02-13 23:21:00,25.3,20.6,30.20,ESE,112,0.0,0.0,82,0.00,CLR,BKN,0.00,WeatherDisplay:10.37,2014-02-14 04:21:00,
2014-02-13 23:26:00,25.3,20.6,30.20,ESE,112,0.0,0.0,82,0.00,CLR,BKN,0.00,WeatherDisplay:10.37,2014-02-14 04:26:00,
2014-02-13 23:31:00,25.0,20.3,30.20,ESE,112,0.0,0.0,82,0.00,CLR,BKN,0.00,WeatherDisplay:10.37,2014-02-14 04:31:00,
2014-02-13 23:36:00,24.8,20.1,30.20,ESE,112,0.0,0.0,82,0.00,CLR,BKN,0.00,WeatherDisplay:10.37,2014-02-14 04:36:00,
2014-02-13 23:41:00,24.8,20.1,30.20,ESE,112,0.0,0.0,82,0.00,CLR,BKN,0.00,WeatherDisplay:10.37,2014-02-14 04:41:00,
2014-02-13 23:46:00,24.6,19.9,30.20,ESE,112,0.0,0.0,82,0.00,CLR,BKN,0.00,WeatherDisplay:10.37,2014-02-14 04:46:00,
2014-02-13 23:51:00,24.6,19.9,30.20,ESE,112,0.0,0.0,82,0.00,CLR,BKN,0.00,WeatherDisplay:10.37,2014-02-14 04:51:00,
2014-02-13 23:56:00,24.6,19.6,30.20,ESE,112,0.0,0.0,81,0.00,CLR,BKN,0.00,WeatherDisplay:10.37,2014-02-14 04:56:00,